x

8454000 - Providence, Ri (foxr1) Weather Station

6:54 - Fri 31st Oct 2014 All times are EDT. -4 hours from GMT.

  • Wind
    2mph, 5mph gusts
  • Sea Temp 58°f
  • Aire Temp 46°f
  • Sea Pressure 1015.6mb
  • 8454000 - Providence, Ri
  • 8454000 - Providence, Ri

More Historic Weather Station data

Upgrade to MSW Pro to gain access to the past 30 days of data for over 8000 Wavebouys and Weather Stations around the globe.

Join Pro

Comparision Forecast

View Surf forecast
   
vie 10/31 6:54 2 5 mph 1015.6mb 58f 46f
6:48 3 6 mph 1015.5mb 58f 46f
6:42 5 6 mph 1015.5mb 58f 46f
6:36 5 7 mph 1015.5mb 58f 46f
6:30 3 6 mph 1015.5mb 58f 46f
6:24 2 6 mph 1015.5mb 58f 46f
6:18 3 6 mph 1015.5mb 58f 46f
6:12 2 5 mph 1015.4mb 58f 46f
6:06 3 7 mph 1015.4mb 58f 46f
6:00 2 6 mph 1015.4mb 58f 46f
5:54 2 5 mph 1015.4mb 58f 46f
5:48 2 7 mph 1015.4mb 58f 46f
5:42 2 6 mph 1015.3mb 58f 46f
5:36 2 6 mph 1015.3mb 58f 46f
5:30 2 6 mph 1015.2mb 58f 46f
5:24 2 8 mph 1015.1mb 58f 46f
5:18 1 5 mph 1015.1mb 58f 46f
5:12 1 5 mph 1015.1mb 59f 46f
5:06 2 6 mph 1015mb 59f 46f
5:00 2 8 mph 1015mb 59f 46f
4:54 6 8 mph 1015mb 59f 46f
4:48 5 9 mph 1015mb 59f 46f
4:42 6 9 mph 1015.1mb 59f 46f
4:36 7 8 mph 1015mb 59f 46f
4:30 6 8 mph 1015mb 59f 46f
4:24 7 8 mph 1014.9mb 59f 46f
4:18 6 8 mph 1014.9mb 59f 46f
4:12 6 9 mph 1014.9mb 59f 46f
4:06 7 10 mph 1014.9mb 59f 46f
4:00 8 10 mph 1014.9mb 59f 46f
3:54 6 10 mph 1014.9mb 59f 46f
3:48 5 9 mph 1014.9mb 59f 46f
3:42 3 7 mph 1014.9mb 59f 46f
3:36 3 6 mph 1014.9mb 59f 46f
3:30 5 7 mph 1014.9mb 59f 46f
3:24 5 7 mph 1014.9mb 59f 46f
3:18 3 6 mph 1014.9mb - -
3:12 5 6 mph 1014.9mb - -
3:06 5 6 mph 1014.9mb - -
3:00 3 5 mph 1014.9mb 59f 46f
2:54 5 6 mph 1014.9mb 59f 46f
2:48 2 5 mph 1014.9mb 59f 46f
2:42 5 6 mph 1014.9mb 59f 46f
2:36 5 7 mph 1014.9mb 59f 46f
2:30 6 7 mph 1014.9mb 59f 46f
2:24 5 7 mph 1014.9mb 60f 46f
2:18  -  mph - 60f 46f
2:12  -  mph - 60f 46f
2:06  -  mph - 60f 46f
2:00 3 6 mph 1014.9mb 60f 46f
1:54 5 7 mph 1014.9mb 60f 46f
1:48 6 7 mph 1014.9mb 60f 46f
1:42 6 8 mph 1014.8mb 60f 46f
1:36 5 7 mph 1014.8mb 60f 46f
1:30 5 8 mph 1014.8mb 60f 46f
1:24 3 9 mph 1014.7mb 60f 46f
1:18 6 9 mph 1014.7mb 60f 46f
1:12 7 10 mph 1014.7mb 60f 46f
1:06 6 10 mph 1014.7mb 60f 46f
1:00 7 9 mph 1014.7mb 60f 46f
12:54 6 8 mph 1014.7mb 60f 46f
12:48 7 9 mph 1014.8mb 60f 46f
12:42 6 8 mph 1014.8mb 60f 46f
12:36 6 8 mph 1014.8mb 60f 46f
12:30 5 7 mph 1014.8mb 60f 47f
12:24 5 7 mph 1014.8mb 60f 47f
12:18 5 8 mph 1014.7mb 59f 47f
12:12 6 8 mph 1014.7mb 59f 47f
12:06 6 9 mph 1014.6mb 59f 47f
12:00 6 8 mph 1014.7mb 59f 47f
jue 10/30 11:54 7 8 mph 1014.7mb 59f 47f
11:48 6 7 mph 1014.7mb 59f 47f
11:42 6 9 mph 1014.8mb 59f 47f
11:36 7 8 mph 1014.8mb 59f 47f
11:30 6 8 mph 1014.8mb 58f 47f
11:24 6 9 mph 1014.8mb 58f 47f
11:18 7 10 mph 1014.7mb 58f 47f
11:12 7 10 mph 1014.7mb 58f 47f
11:06 7 10 mph 1014.7mb 58f 47f
11:00 8 9 mph 1014.6mb 58f 48f
10:00 6 10 mph - - -
9:54 7 8 mph - - -
9:48  -  mph - - 49f
9:42  -  mph - - 49f
9:36  -  mph - - 49f
9:30  -  mph 1014.4mb - -
9:24  -  mph 1014.3mb - -
9:18  -  mph 1014.3mb - -
9:12  -  mph 1014.2mb - -
9:06  -  mph 1014.2mb - -
9:00  -  mph 1014.2mb - -
8:48 7 9 mph 1014mb 59f 50f
8:42 7 10 mph 1014.1mb 58f 50f
8:36 6 9 mph 1014.1mb 59f 50f
8:30 7 10 mph 1014mb 59f 51f
8:24 7 10 mph 1014mb 59f 51f
8:18 7 10 mph 1014mb 59f 51f
8:12 6 8 mph 1014mb 59f 51f
8:06 7 8 mph 1014mb 59f 51f
8:00 6 7 mph 1014mb 59f 52f
7:54 6 9 mph 1014mb 59f 52f
7:48 6 8 mph 1014mb 59f 52f
7:42 6 8 mph 1013.9mb 59f 52f
7:36 6 7 mph 1013.9mb 59f 52f
7:30 6 8 mph 1013.8mb 59f 53f
7:24 5 7 mph 1013.8mb 59f 53f
7:18 6 8 mph 1013.8mb 59f 53f
7:12 7 9 mph 1013.7mb 59f 53f
7:06 6 8 mph 1013.8mb 59f 53f
7:00 3 8 mph 1013.8mb 59f 54f
6:54 5 9 mph 1013.8mb 59f 54f
6:48 8 10 mph 1013.8mb 59f 54f
6:42 8 10 mph 1013.7mb 59f 54f
6:36 8 13 mph 1013.7mb 59f 54f
6:30 8 11 mph 1013.6mb 59f 54f
6:24 6 10 mph 1013.5mb 59f 55f
6:18 8 10 mph 1013.4mb 59f 55f
6:12 8 11 mph 1013.4mb 59f 55f
6:06 8 13 mph 1013.4mb 59f 55f
6:00 7 10 mph 1013.3mb 59f 55f
5:54 8 14 mph 1013.2mb 59f 55f
5:48 9 14 mph 1013.2mb 59f 55f
5:42 8 16 mph 1013.1mb 59f 55f
5:36 10 15 mph 1013.1mb 59f 56f
5:30 11 15 mph 1013mb 59f 56f
5:24 10 17 mph 1013mb 59f 56f
5:18 11 15 mph 1013mb 59f 56f
5:12 13 16 mph 1012.9mb 59f 57f
5:06 9 14 mph 1012.8mb 59f 57f
5:00 7 10 mph 1012.8mb 59f 57f
4:54 10 16 mph 1012.7mb 59f 57f
4:48 10 14 mph 1012.7mb 59f 58f
4:42 8 16 mph 1012.6mb 59f 58f
4:36 8 13 mph 1012.6mb 59f 58f
4:30 8 13 mph 1012.7mb 59f 58f
4:24 8 14 mph 1012.6mb 59f 58f
4:18 8 14 mph 1012.6mb 59f 58f
4:12 8 17 mph 1012.5mb 59f 58f
4:06 14 18 mph 1012.5mb 59f 58f
4:00 13 17 mph 1012.4mb 59f 58f
3:54 14 17 mph 1012.4mb 59f 58f
3:48 15 17 mph 1012.3mb 59f 58f
3:42 8 13 mph 1012.3mb 59f 59f
3:36 13 17 mph 1012.2mb 59f 59f
3:30 10 18 mph 1012.2mb 59f 60f
3:24 8 13 mph 1012.1mb 59f 59f
3:18 7 11 mph 1012.1mb 59f 59f
3:12 7 18 mph 1012.1mb 59f 59f
3:06 13 18 mph 1012mb 59f 59f
3:00 11 15 mph 1012mb 59f 58f
2:54 11 16 mph 1012.1mb 59f 58f
2:48 10 17 mph 1012.1mb 59f 59f
2:42 10 15 mph 1012.1mb 59f 60f
2:36 13 16 mph 1012mb 60f 59f
2:30 8 14 mph 1012.1mb 60f 60f
2:24 7 13 mph 1012.1mb 60f 61f
2:18 8 14 mph 1012.1mb 60f 60f
2:12 6 15 mph 1012.1mb 60f 60f
2:06 10 17 mph 1012.1mb 60f 60f
2:00 13 17 mph 1012.1mb 60f 60f
1:54 8 13 mph 1012.1mb 60f 60f
1:48 6 11 mph 1012.1mb 60f 60f
1:42 11 15 mph 1012.2mb 60f 60f
1:36 6 11 mph 1012.2mb 60f 59f
1:30 3 10 mph 1012.2mb 60f 59f
1:24 9 13 mph 1012.2mb 60f 59f
1:18  -  mph - 60f 59f
1:12  -  mph - 60f 60f
1:06  -  mph - 60f 60f
1:00  -  mph 1012.3mb - -
12:54  -  mph 1012.2mb - -
12:48 11 16 mph 1012.4mb 60f 60f
12:42 9 15 mph 1012.4mb 60f 59f
12:36 7 16 mph 1012.5mb 60f 60f
12:30 10 14 mph 1012.5mb 60f 59f
12:24 7 11 mph 1012.5mb 60f 59f
12:18 7 14 mph 1012.6mb 60f 60f
12:12 3 14 mph 1012.6mb 60f 59f
12:06 10 16 mph 1012.6mb 60f 59f
12:00 6 15 mph 1012.7mb 60f 59f
11:54 10 16 mph 1012.7mb 60f 58f
11:48 8 13 mph 1012.8mb 60f 57f
11:42 9 15 mph 1012.9mb 60f 59f
11:36 10 14 mph 1013mb 60f 58f
11:30 6 11 mph 1013mb 59f 58f
11:24 10 14 mph 1013mb 59f 58f
11:18 10 17 mph 1013.1mb 59f 57f
11:12 10 16 mph 1013.1mb 59f 56f
11:06 10 18 mph 1013.2mb 59f 57f
11:00 14 17 mph 1013.2mb 59f 56f
10:54 14 20 mph 1013.2mb 59f 56f
10:48 8 16 mph 1013.2mb 59f 56f
10:42 10 15 mph 1013.3mb 59f 56f
10:36 10 18 mph 1013.2mb 59f 56f
10:30 14 17 mph 1013.2mb 59f 55f
10:24 9 14 mph 1013.2mb 59f 55f
10:18 11 16 mph 1013.2mb 59f 54f
10:12 9 15 mph 1013.2mb 59f 55f
10:06 10 15 mph 1013.3mb 59f 54f
10:00 9 11 mph 1013.2mb 59f 54f
9:54 7 14 mph 1013.3mb 59f 54f
9:48 10 20 mph 1013.3mb 59f 53f
9:42 11 14 mph 1013.3mb 59f 53f
9:36 11 17 mph 1013.3mb 59f 53f
9:30 8 15 mph 1013.3mb 59f 53f
9:24 10 15 mph 1013.3mb 59f 53f
9:18 10 15 mph 1013.3mb 59f 52f
9:12 10 13 mph 1013.3mb 59f 52f
9:06 7 14 mph 1013.3mb 59f 52f
9:00 9 16 mph 1013.3mb 59f 51f
8:54 11 15 mph 1013.3mb 59f 51f
8:48 11 17 mph 1013.2mb 59f 51f
8:42 7 10 mph 1013.2mb 59f 51f
8:36 5 9 mph 1013.1mb 59f 50f
8:30 7 10 mph 1013mb 59f 50f
8:24 6 10 mph 1013mb 59f 50f
8:18 7 10 mph 1013mb 59f 50f
8:12 8 11 mph 1013mb 59f 49f
8:06 7 10 mph 1013mb 59f 49f
8:00 8 9 mph 1012.9mb 59f 49f
7:54 8 10 mph 1012.9mb 59f 48f
7:48 8 13 mph 1012.8mb 59f 48f
7:42 10 13 mph 1012.8mb 59f 48f
7:36 8 13 mph 1012.7mb 59f 48f
7:30 8 13 mph 1012.7mb 59f 48f
7:24 9 13 mph 1012.6mb 59f 48f
7:18 8 13 mph 1012.5mb 59f 48f
7:12 8 14 mph 1012.6mb 59f 48f
7:06 10 13 mph 1012.7mb 59f 48f
7:00 10 13 mph 1012.7mb 59f 48f
6:54 7 9 mph 1012.6mb 59f 48f
6:48 2 6 mph 1012.7mb 59f 48f
6:42 5 9 mph 1012.7mb 59f 48f
6:36 7 9 mph 1012.7mb 59f 48f
6:30 7 9 mph 1012.6mb 59f 48f
6:24 7 10 mph 1012.6mb 59f 48f
6:18 7 10 mph 1012.6mb 59f 48f
6:12 6 8 mph 1012.4mb 59f 48f
6:06 6 8 mph 1012.4mb 59f 48f
6:00 6 9 mph 1012.4mb 59f 48f
5:54 8 10 mph 1012.3mb 59f 48f
5:48 7 8 mph 1012.3mb 59f 48f
5:42 7 11 mph 1012.3mb 59f 48f
5:36 9 11 mph 1012.2mb 59f 49f
5:30 9 10 mph 1012.2mb 60f 49f
5:24 9 13 mph 1012.1mb 60f 49f
5:18 10 13 mph 1012mb 60f 49f
5:12 8 14 mph 1011.9mb 60f 49f
5:06 7 10 mph 1011.8mb 60f 49f
5:00 6 8 mph 1011.8mb 60f 49f
4:54 5 10 mph 1011.6mb 60f 49f
4:48 7 10 mph 1011.5mb 60f 49f
4:42 7 10 mph 1011.5mb 59f 49f
4:36 7 11 mph 1011.5mb 59f 49f
4:30 7 9 mph 1011.5mb 59f 49f
4:24 7 9 mph 1011.5mb 59f 49f
4:18 6 9 mph 1011.5mb 59f 49f
4:12 6 8 mph 1011.5mb 59f 49f
4:06 5 7 mph 1011.6mb 59f 49f
4:00 3 6 mph 1011.6mb 59f 49f
3:54 6 8 mph 1011.6mb 59f 50f
3:48 6 10 mph 1011.4mb 59f 50f
3:42 8 10 mph 1011.4mb 60f 50f
3:36 5 8 mph 1011.6mb 60f 50f
3:30 6 9 mph 1011.6mb 60f 50f
3:24 5 7 mph 1011.6mb 60f 50f
3:18 6 8 mph 1011.6mb 60f 50f
3:12 6 8 mph 1011.7mb 60f 50f
3:06 7 9 mph 1011.8mb 60f 50f
3:00 7 10 mph 1011.8mb 60f 50f
2:54 6 9 mph 1011.9mb 60f 50f
2:48 6 9 mph 1011.9mb 60f 50f
2:42 7 9 mph 1011.9mb 60f 51f
2:36 7 10 mph 1011.7mb 60f 51f
2:30 5 10 mph 1011.7mb 60f 51f
2:24 8 10 mph 1011.7mb 60f 51f
2:18 5 8 mph 1011.7mb 60f 52f
2:12 5 10 mph 1011.7mb 60f 52f
2:06 7 9 mph 1011.7mb 60f 52f
2:00 7 9 mph 1011.6mb 60f 52f
1:54 2 8 mph 1011.7mb 60f 52f
1:48 7 14 mph 1011.6mb 60f 53f
1:42 5 10 mph 1011.5mb 60f 53f
1:36 8 11 mph 1011.5mb 60f 53f
1:30 9 14 mph 1011.4mb 60f 53f
1:24 8 14 mph 1011.5mb 60f 53f
1:18 9 14 mph 1011.4mb 60f 54f
1:12 9 13 mph 1011.4mb 60f 54f
1:06 6 11 mph 1011.5mb 60f 54f
1:00 6 13 mph 1011.5mb 60f 54f
12:54 5 9 mph 1011.5mb 60f 54f
12:48 7 10 mph 1011.6mb 60f 54f
12:42 5 9 mph 1011.6mb 60f 54f
12:36 5 8 mph 1011.5mb 60f 55f
12:30 2 7 mph 1011.3mb 60f 55f
12:24 3 7 mph 1011.3mb 60f 55f
12:18 6 7 mph 1011.3mb 60f 55f
12:12 6 7 mph 1011.2mb 60f 55f
12:06 6 8 mph 1011.3mb 60f 55f
12:00 6 8 mph 1011.2mb 60f 55f
mié 10/29 11:54 6 7 mph 1011.4mb 60f 55f
11:48 2 6 mph 1011.2mb 60f 55f
11:42 2 6 mph 1011.1mb 60f 55f
11:36 3 7 mph 1011.1mb 60f 54f
11:30 6 9 mph 1011.2mb 60f 55f
11:24 2 6 mph 1011.2mb 60f 54f
11:18 3 9 mph 1011.2mb 60f 55f
11:12 5 8 mph 1011.3mb 60f 55f
11:06 3 9 mph 1011.2mb 60f 55f
11:00 6 9 mph 1011.2mb 60f 55f
10:54 7 9 mph 1011.2mb 60f 55f
10:48 5 10 mph 1011.2mb 60f 55f
10:42 2 8 mph 1011.1mb 60f 55f
10:36 5 8 mph 1011.2mb 60f 55f
10:30 7 9 mph 1011.3mb 60f 55f
10:24 5 8 mph 1011.1mb 60f 55f
10:18 3 8 mph 1011.2mb 60f 55f
10:12 7 10 mph 1011.1mb 60f 55f
10:06 7 11 mph 1011.1mb 60f 55f
10:00 8 9 mph 1011.3mb 60f 55f
9:54 9 13 mph 1011.2mb 60f 55f
9:48 9 15 mph 1011.1mb - 55f
9:42 11 15 mph 1011mb - 55f
9:36 10 15 mph 1010.9mb - 55f
9:30 10 14 mph 1010.8mb 60f 55f
9:24 7 14 mph 1010.7mb 60f 56f
9:18 11 14 mph 1010.6mb 60f 56f
9:12 11 15 mph 1010.5mb 60f 56f
9:06 9 11 mph 1010.5mb 60f 57f
9:00 9 13 mph 1010.5mb 60f 57f
8:54 7 15 mph 1010.4mb 60f 58f
8:48 10 21 mph 1010.3mb 60f 58f
8:42 14 20 mph 1010.3mb 60f 60f
8:36 13 17 mph 1010.2mb 60f 61f
8:30 10 14 mph 1009.7mb 60f 61f
8:24 8 10 mph 1009.7mb 60f 62f
8:18 8 13 mph 1009.9mb 60f 62f
8:12 8 14 mph 1009.9mb 60f 62f
8:06 7 14 mph 1010mb 60f 62f
8:00 10 14 mph 1009.9mb 60f 62f
7:54 7 10 mph 1009.9mb 60f 62f
7:48 6 9 mph 1009.6mb 60f 62f
7:42 10 16 mph 1009.7mb 60f 62f
7:36 9 13 mph 1009.8mb 60f 63f
7:30 8 13 mph 1009.8mb 60f 63f
7:24 7 13 mph 1009.6mb 60f 63f
7:18 9 13 mph 1009.5mb 60f 63f
7:12 7 9 mph 1009.4mb 60f 63f
7:06 7 10 mph 1009.4mb 60f 63f
7:00 8 16 mph 1009.5mb 60f 63f
6:54 10 14 mph 1009.6mb 60f 63f
6:48 9 15 mph 1009.7mb 60f 63f
6:42 9 17 mph 1009.6mb 60f 63f
6:36 9 16 mph 1009.5mb 60f 63f
6:30 9 17 mph 1009.3mb 60f 63f
6:24 14 20 mph 1009.4mb 60f 64f
6:18 11 21 mph 1009.3mb 60f 64f
6:12 17 24 mph 1008.9mb 60f 64f
6:06 15 22 mph 1008.9mb 60f 65f
6:00 10 21 mph 1008.9mb 60f 65f
5:54 13 20 mph 1008.6mb 60f 66f
5:48 15 22 mph 1008.4mb 60f 66f
5:42 16 22 mph 1008.1mb 60f 67f
5:36 7 13 mph 1008.1mb 60f 67f
5:30 3 8 mph 1008mb 60f 66f
5:24 7 10 mph 1007.6mb 60f 65f
5:18 8 9 mph 1007.4mb 60f 65f
5:12 8 9 mph 1007.4mb 60f 65f
5:06 8 10 mph 1007.2mb 60f 65f
5:00 9 13 mph 1007.2mb 60f 65f
4:54 11 14 mph 1007.3mb 60f 65f
4:48 11 13 mph 1007.2mb 60f 66f
4:42 10 13 mph 1007.1mb 60f 66f
4:36 10 14 mph 1007.1mb 60f 66f
4:30 10 14 mph 1007.1mb 60f 66f
4:24 11 13 mph 1007mb 60f 66f
4:18 13 15 mph 1007mb 60f 67f
4:12 11 14 mph 1007mb 60f 67f
4:06 11 15 mph 1007mb 60f 67f
4:00 13 15 mph 1007mb 59f 67f
3:54 13 15 mph 1007.1mb 59f 67f
3:48 10 15 mph 1007.1mb 59f 67f
3:42 13 14 mph 1007.1mb 59f 67f
3:36 11 14 mph 1007.2mb 59f 68f
3:30 11 14 mph 1007.2mb 59f 67f
3:24 11 15 mph 1007.2mb 59f 67f
3:18 9 14 mph 1007.2mb 59f 67f
3:12 11 15 mph 1007.1mb 59f 67f
3:06 10 14 mph 1007.2mb 59f 67f
3:00 9 14 mph 1007.2mb 59f 67f
2:54 9 14 mph 1007.3mb 59f 67f
2:48 9 11 mph 1007.3mb 59f 67f
2:42 8 11 mph 1007.3mb 59f 68f
2:36 8 10 mph 1007.4mb 59f 69f
2:30 8 10 mph 1007.4mb 59f 69f
2:24 6 9 mph 1007.5mb 59f 73f
2:18 7 9 mph 1007.5mb 59f 73f
2:12 8 11 mph 1007.5mb 59f 73f
2:06 6 13 mph 1007.6mb 59f 74f
2:00 8 11 mph 1007.6mb 59f 73f
1:54 8 11 mph 1007.7mb 59f 73f
1:48 9 13 mph 1007.8mb 59f 73f
1:42 7 11 mph 1007.9mb 59f 73f
1:36 6 10 mph 1007.9mb 59f 73f
1:30 6 10 mph 1008mb 59f 73f
1:24 6 11 mph 1008mb 59f 73f
1:18 7 13 mph 1008mb 59f 73f
1:12 8 13 mph 1008.1mb 59f 73f
1:06 8 13 mph 1008.2mb 59f 73f
1:00 7 13 mph 1008.3mb 59f 73f
12:54 11 13 mph 1008.5mb 59f 73f
12:48 6 11 mph 1008.5mb 59f 73f
12:42 8 11 mph 1008.5mb 59f 72f
12:36 6 10 mph 1008.7mb 59f 72f
12:30 8 13 mph 1008.7mb 59f 72f
12:24 9 13 mph 1008.8mb 59f 71f
12:18 8 14 mph 1008.8mb 59f 71f
12:12 9 13 mph 1009mb 59f 71f
12:06 8 13 mph 1009.2mb 59f 71f
12:00 6 11 mph 1009.3mb 59f 70f
11:54 10 14 mph 1009.4mb 59f 70f
11:48 10 14 mph 1009.4mb 59f 70f
11:42 6 11 mph 1009.5mb 59f 70f
11:36 7 10 mph 1009.6mb 59f 70f
11:30 7 10 mph 1009.6mb 59f 69f
11:24 6 11 mph 1009.7mb 59f 69f
11:18 8 15 mph 1009.8mb 59f 69f
11:12 9 14 mph 1009.9mb 59f 69f
11:06 10 15 mph 1009.9mb 59f 68f
11:00 9 13 mph 1009.9mb 59f 68f
10:54 8 11 mph 1010mb 59f 68f
10:48 8 11 mph 1010mb 59f 68f
10:42 7 11 mph 1010mb 59f 68f
10:36 8 14 mph 1010.1mb 59f 68f
10:30 6 11 mph 1010.1mb 59f 68f
10:24 9 11 mph 1010.2mb 59f 68f
10:18 7 11 mph 1010.2mb 59f 67f
10:12 8 11 mph 1010.3mb 59f 67f
10:06 11 15 mph 1010.2mb 59f 67f
10:00 8 13 mph 1010.3mb 59f 67f
9:54 7 10 mph 1010.5mb 59f 66f
9:48 8 11 mph 1010.5mb 59f 66f
9:42 8 11 mph 1010.5mb 59f 66f
9:36 7 11 mph 1010.5mb 59f 66f
9:30 6 8 mph 1010.6mb 59f 65f
9:24 5 7 mph 1010.6mb 59f 65f
9:18 7 9 mph 1010.6mb 59f 65f
9:12 3 7 mph 1010.7mb 59f 64f
9:06 3 10 mph 1010.8mb 59f 64f
9:00 5 6 mph 1010.8mb 59f 63f
8:54 5 8 mph 1011mb 59f 63f
8:48 5 7 mph 1011mb 59f 62f
8:42 5 6 mph 1011mb 59f 62f
8:36 6 7 mph 1010.9mb 59f 62f
8:30 5 6 mph 1011mb 59f 62f
8:24 5 6 mph 1011mb 59f 61f
8:18 5 9 mph 1011mb 59f 62f
8:12 6 7 mph 1010.9mb 59f 62f
8:06 5 7 mph 1010.9mb 59f 62f
8:00 5 8 mph 1010.9mb 59f 62f
7:54 5 7 mph 1010.8mb 59f 62f
7:48 6 11 mph 1010.8mb 59f 62f
7:42 6 10 mph 1010.8mb 59f 62f
7:36 6 9 mph 1010.8mb 59f 62f
7:30 5 10 mph 1010.8mb 59f 61f
7:24 6 10 mph 1010.8mb 59f 61f
7:18 7 11 mph 1010.8mb 59f 61f
7:12 6 8 mph 1010.8mb 59f 61f
7:06 6 9 mph 1010.9mb 59f 61f
7:00 6 8 mph 1010.8mb 59f 60f
6:54 5 6 mph 1010.8mb 59f 60f
6:48 3
mph
1010.8mb 59f 60f
6:42 3 5 mph 1010.9mb 59f 60f
6:36 3 6 mph 1010.9mb 59f 60f
6:30 5
mph
1010.8mb 59f 59f
6:24 3 5 mph 1010.8mb 59f 59f
6:18 3
mph
1010.8mb 59f 59f
6:12 3 5 mph 1010.9mb 58f 59f
6:06 3 5 mph 1010.9mb 58f 59f
6:00 5
mph
1010.9mb 58f 59f
5:54 5
mph
1010.9mb 58f 59f
5:48 3 5 mph 1010.9mb 58f 59f
5:42 2 3 mph 1010.9mb 58f 59f
5:36 3 5 mph 1011mb 58f 59f
5:30 3 5 mph 1011mb 58f 59f
5:24 3
mph
1011mb 59f 59f
5:18 3 6 mph 1011.1mb 59f 59f
5:12 3 6 mph 1011.1mb 59f 59f
5:06 5 6 mph 1011.1mb 59f 59f
5:00 5 6 mph 1011.2mb 59f 59f
4:54 5 6 mph 1011.2mb 59f 59f
4:48 5
mph
1011.2mb 59f 59f
4:42 5
mph
1011.3mb 59f 59f
4:36 2 5 mph 1011.3mb 59f 59f
4:30 3 5 mph 1011.1mb 59f 59f
4:24 3 5 mph 1011.2mb 59f 59f
4:18 5 6 mph 1011.2mb 59f 60f
4:12 3 5 mph 1011.2mb 59f 60f
4:06 3 5 mph 1011.2mb 59f 60f
4:00 5 7 mph 1011.2mb 59f 60f
3:54 6 7 mph 1011.2mb 59f 60f
3:48 6 7 mph 1011.2mb 59f 60f
3:42 6 7 mph 1011.3mb 59f 60f
3:36 5 6 mph 1011.4mb 59f 60f
3:30 6 8 mph 1011.5mb 59f 60f
3:24 6 8 mph 1011.5mb 59f 60f
3:18 7 8 mph 1011.6mb 59f 60f
3:12 6 7 mph 1011.7mb 59f 59f
3:06 6 7 mph 1011.9mb 59f 59f
3:00 6 7 mph 1011.9mb 59f 60f
2:54 6 7 mph 1012mb 59f 60f
2:48 6 7 mph 1012mb 59f 60f
2:42 5 6 mph 1012.1mb 59f 60f
2:36 5
mph
1012.1mb 59f 60f
2:30 5 6 mph 1012mb 59f 60f
2:24 6
mph
1012mb 59f 60f
2:18 5 7 mph 1012.1mb 59f 60f
2:12 5 6 mph 1012.1mb 59f 59f
2:06 5 6 mph 1012.2mb 59f 59f
2:00 5 6 mph 1012.3mb 59f 59f
1:54 5 7 mph 1012.3mb 59f 59f
1:48 6 7 mph 1012.4mb 59f 59f
1:42 6 7 mph 1012.4mb 59f 60f
1:36 6 7 mph 1012.4mb 59f 60f
1:30 6
mph
1012.5mb 59f 60f
1:24 5
mph
1012.6mb 59f 59f
1:18 3 5 mph 1012.8mb 59f 59f
1:12 3 5 mph 1012.8mb 59f 59f
1:06 3 5 mph 1012.8mb 59f 59f
1:00 3 5 mph 1012.8mb 59f 59f
12:54 5
mph
1012.9mb 59f 59f
12:48 3 6 mph 1012.9mb 59f 59f
12:42 5 6 mph 1012.8mb 59f 59f
12:36 3 5 mph 1012.8mb 59f 59f
12:30 5
mph
1012.8mb 59f 59f
12:24 3 5 mph 1012.9mb 59f 59f
12:18 5
mph
1013mb 59f 58f
12:12 5 6 mph 1013mb 59f 58f
12:06 3
mph
1013mb 59f 58f
12:00 3
mph
1013mb 59f 58f
mar 10/28 11:54 3
mph
1013mb 59f 58f
11:48 2
mph
1013.1mb 59f 58f
11:42  -  1 mph 1013.1mb 59f 59f
11:36 1 2 mph 1013mb 59f 59f
11:30 2
mph
1013mb 59f 59f
11:24 2 3 mph 1013mb 59f 59f
11:18 3 7 mph 1013mb 59f 59f
11:12 5 6 mph 1012.9mb 59f 59f
11:06 3 7 mph 1012.8mb 59f 59f
11:00 7 8 mph 1012.7mb 59f 59f
10:54 6 7 mph 1012.8mb 59f 59f
10:48 6
mph
1012.8mb 59f 59f
10:42 5 7 mph 1012.9mb 59f 59f
10:36 5 6 mph 1012.9mb 59f 59f
10:30 6 7 mph 1012.9mb 59f 59f
10:24 6 8 mph 1013.1mb 59f 59f
10:18 6 8 mph 1013mb 59f 59f
10:12 6 7 mph 1013.2mb 59f 59f
10:06 7 9 mph 1013.3mb 59f 59f
10:00 7 8 mph 1013.3mb 59f 59f
9:54 7 9 mph 1013.3mb 59f 59f
9:48 8 10 mph 1013.3mb 59f 59f
9:42 8 10 mph 1013.3mb 59f 59f
9:36 6 7 mph 1013.5mb 59f 59f
9:30 6 7 mph 1013.5mb 59f 59f
9:24 6 7 mph 1013.5mb 59f 59f
9:18 6 7 mph 1013.5mb 59f 59f
9:12 6 7 mph 1013.5mb 59f 59f
9:06 5 7 mph 1013.5mb 59f 59f
9:00 6 7 mph 1013.6mb 59f 59f
8:54 5 6 mph 1013.5mb 59f 59f
8:48 5 6 mph 1013.6mb 59f 59f
8:42 5 7 mph 1013.6mb 58f 59f
8:36 6 7 mph 1013.5mb 58f 59f
8:30 6 7 mph 1013.5mb 58f 60f
8:24 5 6 mph 1013.5mb 58f 60f
8:18 5 6 mph 1013.5mb 58f 60f
8:12 5 7 mph 1013.4mb 58f 60f
8:06 6 9 mph 1013.3mb 58f 60f
8:00 7 9 mph 1013.4mb 58f 60f
7:54 7 9 mph 1013.4mb 58f 60f
7:48 7 8 mph 1013.4mb 58f 60f
7:42 7 8 mph 1013.4mb 58f 60f
7:36 7 10 mph 1013.5mb 58f 60f
7:30 7 9 mph 1013.4mb 58f 60f
7:24 8 10 mph 1013.5mb 58f 60f
7:18 7 10 mph 1013.5mb 58f 60f
7:12 9 11 mph 1013.5mb 58f 60f
7:06 9 10 mph 1013.5mb 58f 60f
7:00 8 9 mph 1013.5mb 58f 60f
6:54 8 9 mph 1013.5mb 58f 61f
6:48 6 9 mph 1013.6mb 58f 61f
6:42 8 10 mph 1013.5mb 58f 61f
6:36 9 13 mph 1013.5mb 58f 61f
6:30 10 13 mph 1013.5mb 58f 61f
6:24 9 11 mph 1013.5mb 58f 61f
6:18 9 11 mph 1013.5mb 58f 61f
6:12 9 10 mph 1013.4mb 58f 62f
6:06 9 11 mph 1013.5mb 58f 62f
6:00 9 11 mph 1013.5mb 58f 62f
5:54 10 13 mph 1013.5mb 58f 62f
5:48 10 14 mph 1013.6mb 58f 62f
5:42 9 13 mph 1013.5mb 58f 62f
5:36 10 13 mph 1013.5mb 58f 63f
5:30 10 13 mph 1013.5mb 58f 63f
5:24 11 13 mph 1013.6mb 58f 63f
5:18 9 13 mph 1013.5mb 58f 63f
5:12 9 11 mph 1013.5mb 58f 64f
5:06 9 11 mph 1013.7mb 58f 64f
5:00 8 11 mph 1013.6mb 58f 64f
4:54 8 11 mph 1013.6mb 58f 64f
4:48 10 13 mph 1013.5mb 58f 64f
4:42 11 14 mph 1013.7mb 58f 64f
4:36 10 16 mph 1013.7mb 58f 64f
4:30 13 15 mph 1013.6mb 58f 64f
4:24 11 13 mph 1013.6mb 58f 65f
4:18 10 13 mph 1013.7mb 58f 65f
4:12 10 13 mph 1013.8mb 58f 65f
4:06 9 11 mph 1013.8mb 58f 65f
4:00 10 11 mph 1013.9mb 58f 65f
3:54 10 13 mph 1013.8mb 58f 64f
3:48 10 13 mph 1013.9mb 58f 65f
3:42 10 13 mph 1013.8mb 58f 65f
3:36 9 11 mph 1013.7mb 58f 65f
3:30 9 13 mph 1013.8mb 58f 65f
3:24 9 10 mph 1013.9mb 58f 65f
3:18 9 15 mph 1013.8mb 58f 65f
3:12 11 14 mph 1013.8mb 58f 65f
3:06 9 14 mph 1013.8mb 59f 66f
3:00 7 10 mph 1013.8mb 59f 67f
2:54 10 11 mph 1013.8mb 59f 68f
2:48 8 11 mph 1013.9mb 59f 69f
2:42 10 13 mph 1013.9mb 59f 68f
2:36 11 13 mph 1013.9mb 59f 68f
2:30 9 14 mph 1014.1mb 59f 69f
2:24 7 13 mph 1014mb 59f 69f
2:18 6 14 mph 1014.2mb 59f 69f
2:12 9 15 mph 1014.1mb 59f 69f
2:06 9 14 mph 1014.1mb 59f 69f
2:00 7 15 mph 1014.2mb 59f 68f
1:54 7 13 mph 1014.3mb 59f 69f
1:48 7 10 mph 1014.5mb 59f 69f
1:42 10 15 mph 1014.5mb 59f 68f
1:36 9 14 mph 1014.5mb 59f 69f
1:30 9 15 mph 1014.6mb 59f 69f
1:24 8 17 mph 1014.7mb 59f 69f
1:18 11 16 mph 1014.6mb 59f 69f
1:12 13 18 mph 1014.9mb 59f 69f
1:06 10 14 mph 1014.9mb 59f 69f
1:00 11 15 mph 1014.9mb 59f 69f
12:54 9 14 mph 1014.8mb 59f 69f
12:48 8 13 mph 1014.8mb 59f 69f
12:42 8 16 mph 1015mb 59f 69f
12:36 13 17 mph 1015.1mb 59f 68f
12:30 10 15 mph 1015.3mb 59f 68f
12:24 9 13 mph 1015.4mb 59f 68f
12:18 10 14 mph 1015.5mb 59f 68f
12:12 9 13 mph 1015.6mb 59f 66f
12:06 9 14 mph 1015.6mb 59f 64f
12:00 10 14 mph 1015.8mb 59f 64f
11:54 11 13 mph 1015.8mb 59f 63f
11:48 11 14 mph 1015.9mb 59f 62f
11:42 9 15 mph 1016mb 59f 62f
11:36 11 15 mph 1016mb 59f 62f
11:30 11 15 mph 1016.1mb 59f 61f
11:24 9 11 mph 1016.1mb 59f 60f
11:18 9 11 mph 1016.3mb 59f 59f
11:12 9 10 mph 1016.4mb 59f 58f
11:06 9 10 mph 1016.4mb 59f 58f
11:00 7 8 mph 1016.5mb 59f 57f
10:54 6 8 mph 1016.6mb 59f 57f
10:48 6 7 mph 1016.7mb 59f 57f
10:42 6 7 mph 1016.7mb 59f 56f
10:36 3 5 mph 1016.7mb 59f 55f
10:30 2 3 mph 1016.8mb 59f 55f
10:24 2 3 mph 1016.9mb 59f 55f
10:18  -  1 mph 1016.9mb 59f 55f
10:12  -  2 mph 1016.9mb 59f 54f
10:06  -  2 mph 1017mb 59f 54f
10:00 1 2 mph 1017mb 59f 53f
9:54 1 3 mph 1017.1mb 59f 53f
9:48 2 3 mph 1017.3mb 59f 52f
9:42 2 5 mph 1017.2mb 59f 52f
9:36 3 5 mph 1017.2mb 59f 51f
9:30 3 5 mph 1017.4mb 59f 51f
9:24 5 6 mph 1017.4mb 59f 51f
9:18 5 6 mph 1017.2mb 59f 51f
9:12 5 6 mph 1017.1mb 59f 51f
9:06 5 6 mph 1017.2mb 59f 50f
9:00 5 6 mph 1017.2mb 59f 50f
8:54 3 5 mph 1017.3mb 59f 50f
8:48 3 5 mph 1017.3mb 59f 49f
8:42 3 5 mph 1017.3mb 59f 49f
8:36 5 6 mph 1017.3mb 59f 49f
8:30 6 7 mph 1017.3mb 59f 49f
8:24 5
mph
1017.2mb 59f 49f
8:18 3
mph
1017.3mb 59f 50f
8:12 2
mph
1017.3mb 59f 50f
8:06  -  1 mph 1017.2mb 58f 50f
8:00 1 2 mph 1017mb 58f 49f
7:54 1 2 mph 1016.9mb 58f 48f
7:48  -  1 mph 1016.9mb 58f 48f
7:42  -  2 mph 1016.9mb 58f 47f
7:36 2
mph
1016.9mb 58f 47f
7:30 1 2 mph 1016.8mb 58f 47f
7:24  -  1 mph 1016.8mb 58f 47f
7:18 1 2 mph 1016.9mb 58f 47f
7:12  -  1 mph 1016.9mb 58f 47f
7:06  -  2 mph 1016.9mb 58f 47f
7:00 2 5 mph 1017mb 58f 47f
6:54 3 5 mph 1016.8mb 58f 47f
6:48 2
mph
1016.9mb 58f 47f
6:42  -  1 mph 1016.9mb 58f 47f
6:36  -  1 mph 1017mb 58f 47f
6:30  -  2 mph 1017.1mb 58f 47f
6:24 2 3 mph 1017.1mb 58f 47f
6:18 2 5 mph - 58f 46f
6:12 1 2 mph - 58f 47f
6:06 2 3 mph - 58f 47f
6:00 2 3 mph 1017.2mb 58f 46f
5:54 1 2 mph 1017.1mb 58f 46f
5:48  -  mph 1017mb 58f 46f
5:42  -  mph 1017.1mb 58f 46f
5:36  -  mph 1017.2mb 58f 46f
5:30 1 2 mph 1017.3mb 58f 46f
5:24  -  1 mph 1017mb 58f 45f
5:18  -  1 mph 1017.2mb 58f 45f
5:12  -  1 mph 1017.1mb 58f 45f
5:06 1 3 mph 1017.2mb 58f 46f
5:00 2 3 mph 1017.1mb 58f 46f
4:54  -  1 mph 1017mb 58f 46f
4:48  -  1 mph 1017mb 58f 46f
4:42 1 2 mph 1017mb 58f 46f
4:36  -  2 mph 1016.9mb 58f 45f
4:30  -  3 mph 1016.9mb 58f 45f
4:24 2 3 mph 1017mb 58f 45f
4:18 3
mph
1016.9mb 58f 45f
4:12 2 3 mph 1016.8mb 58f 45f
4:06 2 3 mph 1016.7mb 58f 45f
4:00 3
mph
1016.6mb 58f 45f
3:54  -  1 mph 1016.6mb 58f 45f
3:48  -  1 mph 1016.8mb 58f 45f
3:42  -  1 mph 1016.9mb 58f 45f
3:36 1 2 mph 1017mb 58f 45f
3:30 1
mph
1017mb 58f 45f
3:24  -  2 mph 1017.1mb 58f 45f
3:18  -  2 mph 1017mb 58f 45f
3:12 1 3 mph 1017.1mb 59f 45f
3:06 3
mph
1017.1mb 59f 45f
3:00 3 5 mph 1017.2mb 59f 46f
2:54 2 5 mph 1017.2mb 59f 46f
2:48 5
mph
1017.2mb 59f 45f
2:42 3 5 mph 1017.2mb 59f 45f
2:36 2
mph
1017.2mb 59f 46f
2:30 2
mph
1017.2mb 59f 46f
2:24 1 2 mph 1017.1mb 59f 46f
2:18 2 3 mph 1017.1mb 59f 46f
2:12 2 3 mph 1017.2mb 59f 46f
2:06 2 5 mph 1017.1mb 59f 46f
2:00 2 3 mph 1017.1mb 59f 46f
1:54 1 2 mph 1017.1mb 59f 47f
1:48 2 6 mph 1017mb 59f 47f
1:42 5 6 mph 1017mb 59f 47f
1:36 3 5 mph 1016.9mb 59f 47f
1:30 2 3 mph 1016.9mb 59f 47f
1:24 2
mph
1016.8mb 59f 47f
1:18 1 2 mph 1016.8mb 59f 47f
1:12 1 2 mph 1016.7mb 59f 47f
1:06 1 2 mph 1016.7mb 59f 47f
1:00 2
mph
1016.6mb 59f 47f
12:54  -  2 mph 1016.4mb 59f 47f
12:48  -  1 mph 1016.4mb 59f 47f
12:42  -  1 mph 1016.3mb 59f 47f
12:36 2 3 mph 1016.2mb 59f 47f
12:30 2 3 mph 1016.2mb 59f 47f
12:24 2 3 mph 1015.9mb 59f 47f
12:18 2
mph
1016.1mb 59f 48f
12:12 2 3 mph 1016.2mb 59f 48f
12:06 2 3 mph 1016mb 59f 48f
12:00 2 3 mph 1015.8mb 59f 48f
lun 10/27 11:54 2
mph
1015.6mb 59f 48f
11:48  -  2 mph 1015.8mb 59f 49f
11:42  -  2 mph 1016mb 59f 48f
11:36 1 3 mph 1016.1mb 60f 49f
11:30 2 5 mph 1016mb 60f 49f
11:24 3 5 mph 1016mb 60f 49f
11:18 3 5 mph 1016.2mb 60f 49f
11:12 3 5 mph 1016.3mb 60f 50f
11:06 2 3 mph 1016.3mb 60f 50f
11:00 3 5 mph 1016.1mb 60f 50f
10:54 2 3 mph 1016mb 60f 50f
10:48  -  mph 1016mb 60f 50f
10:42  -  mph 1016.1mb 60f 51f
10:36  -  mph 1016mb 60f 51f
10:30 2 5 mph 1016mb 60f 51f
10:24 3
mph
1015.9mb 60f 51f
10:18 1 2 mph 1015.9mb 60f 51f
10:12  -  3 mph 1015.9mb 60f 52f
10:06 3 6 mph 1016mb 59f 52f
10:00 5 9 mph 1015.9mb 59f 53f
9:54 7 8 mph 1015.9mb 59f 53f
9:48 6 8 mph 1015.9mb 59f 52f
9:42 3
mph
1015.9mb 60f 52f
9:36 3 5 mph 1015.8mb 60f 53f
9:30 2 5 mph 1015.7mb 60f 53f
9:24 3 6 mph 1015.6mb 60f 53f
9:18 3 6 mph 1015.4mb 60f 53f
9:12 5 7 mph 1015.3mb 59f 54f
9:06 5 7 mph 1015.2mb 59f 54f
9:00 3 6 mph 1015.1mb 59f 54f
8:54 5 6 mph 1015.2mb 59f 54f
8:48 3 6 mph 1015.1mb 59f 54f
8:42 3 6 mph 1015mb 59f 54f
8:36 3 5 mph 1014.9mb 59f 54f
8:30 5 7 mph 1014.8mb 59f 55f
8:24 5 6 mph 1014.8mb 59f 54f
8:18 3 5 mph 1014.8mb 59f 54f
8:12 3 6 mph 1014.6mb 59f 55f
8:06 5 6 mph 1014.4mb 59f 55f
8:00 5 6 mph 1014.4mb 59f 55f
7:54 2 6 mph 1014.4mb 59f 56f
7:48 5 7 mph 1014.3mb 59f 56f
7:42 3 7 mph 1014.2mb 59f 56f
7:36 5 7 mph 1014.2mb 59f 56f
7:30 7 8 mph 1014.1mb 59f 56f
7:24 3 5 mph 1014.2mb 59f 56f
7:18 1 5 mph 1014.1mb 59f 56f
7:12 2 5 mph 1014mb 59f 56f
7:06 3 6 mph 1014mb 59f 57f
7:00 3 8 mph 1014mb 59f 57f
6:54 6 8 mph 1014mb 59f 57f
6:48 3 9 mph 1013.8mb 59f 57f
6:42 3 9 mph 1013.8mb 59f 57f
6:36 7 10 mph 1013.8mb 59f 58f
6:30 10 14 mph 1013.7mb 59f 58f
6:24 7 10 mph 1013.6mb 59f 58f
6:18 7 14 mph 1013.6mb 59f 59f
6:12 8 11 mph 1013.4mb 59f 59f
6:06 8 11 mph 1013.3mb 59f 59f
6:00 6 9 mph 1013.2mb 59f 59f
5:54 8 11 mph 1013mb 59f 60f
5:48 6 11 mph 1012.9mb 59f 60f
5:42 6 11 mph 1012.9mb 59f 60f
5:36 8 14 mph 1012.8mb 59f 60f
5:30 7 14 mph 1012.8mb 59f 60f
5:24 11 16 mph 1012.8mb 59f 61f
5:18 11 16 mph 1012.8mb 59f 61f
5:12 9 17 mph 1012.8mb 59f 61f
5:06 14 17 mph 1012.8mb 59f 61f
5:00 11 17 mph 1012.8mb 59f 62f
4:54 11 18 mph 1012.5mb 58f 62f
4:48 11 18 mph 1012.5mb 58f 62f
4:42 8 17 mph 1012.4mb 58f 62f
4:36 10 17 mph 1012.3mb 58f 62f
4:30 11 18 mph 1012.2mb 58f 62f
4:24 6 14 mph 1012.1mb 58f 63f
4:18 13 16 mph 1011.9mb 58f 63f
4:12 8 14 mph 1012mb 58f 63f
4:06 13 20 mph 1011.9mb 58f 63f
4:00 14 20 mph 1011.8mb 58f 63f
3:54 11 17 mph 1011.8mb 58f 63f
3:48 14 18 mph 1011.7mb 58f 63f
3:42 9 16 mph 1011.5mb 58f 64f
3:36 16 18 mph 1011.5mb 59f 63f
3:30 11 18 mph 1011.5mb 59f 64f
3:24 11 17 mph 1011.5mb 59f 63f
3:18 11 17 mph 1011.5mb 59f 63f
3:12 10 15 mph 1011.5mb 59f 64f
3:06 9 20 mph 1011.5mb 59f 63f
3:00 16 22 mph 1011.5mb 59f 63f
2:54 11 17 mph 1011.5mb 59f 63f
2:48 10 17 mph 1011.5mb 59f 64f
2:24 17 26 mph 1011.4mb 58f 63f
2:18 13 18 mph 1011.4mb 58f 62f
2:12 9 17 mph 1011.4mb 58f 63f
2:06 11 20 mph 1011.5mb 59f 63f
2:00 11 20 mph 1011.4mb 59f 63f
1:54 10 20 mph 1011.4mb 59f 63f
1:48 13 22 mph 1011.5mb 59f 62f
1:42 8 13 mph 1011.4mb 59f 62f
1:36 11 20 mph 1011.4mb 59f 62f
1:30 13 20 mph 1011.5mb 59f 62f
1:24 14 21 mph 1011.4mb 59f 62f
1:18 11 17 mph 1011.4mb 59f 62f
1:12 13 17 mph 1011.4mb 59f 62f
1:06 14 22 mph 1011.5mb 59f 62f
1:00 14 21 mph 1011.5mb 59f 62f
12:54 14 24 mph 1011.6mb 59f 62f
12:48 10 20 mph 1011.6mb 59f 61f
12:42 13 20 mph 1011.8mb 59f 61f
12:36 15 20 mph 1011.9mb 59f 60f
12:30 11 18 mph 1011.9mb 59f 61f
12:24 9 20 mph 1011.9mb 59f 60f
12:18 14 23 mph 1011.9mb 59f 60f
12:12 9 20 mph 1011.9mb 59f 61f
12:06 13 21 mph 1011.9mb 59f 60f
12:00 11 22 mph 1011.9mb 59f 60f
11:54 18 24 mph 1011.8mb 59f 60f
11:48 16 22 mph 1011.9mb 59f 59f
11:42 16 22 mph 1011.8mb 59f 59f